Powrót do katalogu

STARLINK-35104

AktywnyŁącznośćVLEO
NORAD 65631·PAYLOAD·🇺🇸 United States

Wystrzelony Sep 18, 2025 z Cape Canaveral Space Force Station

Loading…

Następne Przeloty (najbliższe 24 godziny)

TLE

ŚwieżeSource: CelesTrak SupGP

Epoka: Sep 14, 2026, 23:07 UTC

1 65631C 25210K   26257.96368056 -.00002834  00000+0 -83755-4 0  2573
2 65631  53.1566 143.4700 0001190  88.3264 234.3909 15.34383822    10

Śledź STARLINK-35104 w czasie rzeczywistym z AllMySat

Download on the App Store